Regional Weather Roundup
Issued by NWS

Home | Current Version | Previous Version | Text Only | Print | Product List | Glossary On
Versions: 1 2 3 4 5 6 7 8 9 10 11 12 13 14 15 16 17 18 19 20 21 22 23 24 25 26 27 28 29 30 31 32 33 34 35 36 37 38 39 40 41 42 43 44 45 46 47 48 49 50
000
ASUS42 KKEY 051310
RWRKEY

FLORIDA REGIONAL WEATHER ROUNDUP FOR THE FLORIDA KEYS
NATIONAL WEATHER SERVICE KEY WEST FLORIDA
900 AM EDT SAT SEP 05 2015

...SOUTH FLORIDA AND THE KEYS...

CITY           SKY/WX    TMP DP  RH WIND       PRES   REMARKS
FORT MYERS     SUNNY     80  73  79 E7        30.00R
SW REGIONAL AP SUNNY     80  72  76 NE7       30.01R
NAPLES         MOSUNNY   82  73  74 NE8       30.00R
MIAMI          MOSUNNY   83  77  82 NW6       29.99R HX  92
WEST KENDALL   SUNNY     78  78 100 N3        29.99R
HOMESTEAD      MOSUNNY   82  75  78 NW3       29.99S
MARATHON       MOSUNNY   84  77  79 CALM      29.99R HX  94
BOCA CHICA NAS PTSUNNY   87  75  67 E5        29.99R HX  96
KEY WEST INTL  MOSUNNY   88  77  69 E5        29.99R HX 100

...INTERNATIONAL WEATHER...

CITY           SKY/WX    TMP DP  RH WIND       PRES   REMARKS
NASSAU BAHAMAS PTSUNNY   84  75  74 VRB2      30.00R HX  92
CANCUN MEXICO  PTSUNNY   81  77  89 N5        29.99R
COZUMEL MEXICO MOSUNNY   75  75 100 CALM      29.98R

ADJACENT COASTAL WATERS...

STATION/POSITION TIME  SKY/WX   TEMP    WIND        PRES    WAVE
                                AIR SEA DIR/SP/G            HT/PER
                 (UTC)          (F)     (DEG/KT/KT) (MB)    (FT/S)
PULASKI SHOAL LI 1200                                 N/A
SAND KEY         1250            87     340/  3     1015.4R
SOMBRERO KEY     NOT AVBL
LONG KEY         1300            85 89   CALM  /  1 1016.3R
MOLASSES REEF    1300            85 87   80/  1/  3 1015.4R
FOWEY ROCKS      1300            85 87   40/  3/  4 1015.3R

$$



USA.gov is the U.S. government's official web portal to all federal, state and local government web resources and services.